Flag for U.S.A. Weather past 2 weeks in Cocoa Beach, Florida, U.S.A.

Now
78 °F

Clear.


Feels Like: 81 °F
Forecast: 77 / 87 °F
Wind: 7 mph from Southwest

Location: Cocoa / Patrick Air Force Base

Current Time: Jul 25, 2014 at 3:22:22 AM

Latest Report: Jul 25, 2014 at 2:56 AM


Visibility: 10 mi

Pressure: 30.05 "Hg

Humidity: 92%

Dew point: 76 °F

Location of Cocoa BeachLocation

Historic Weather in Cocoa Beach — Graph

°F

Cocoa Beach temperature yesterday

Maximum temperature yesterday: 90 °F (at 12:58 PM)
Minimum temperature yesterday: 79 °F (at 9:58 PM)
Average temperature yesterday: 83 °F

Past Weeks' High & Low Weather Summary

 TemperatureHumidityPressure
High90 °F (Jul 24, 12:58 PM)97% (Jul 18, 6:58 AM)30.18 "Hg (Jul 18, 6:58 AM)
Low74 °F (Jul 14, 8:58 PM)61% (Jul 16, 12:58 PM)29.93 "Hg (Jul 16, 4:58 PM)
Average82 °F81%30.06 "Hg
* Reported Jul 10 1:58 AM — Jul 25 1:58 AM, Cocoa Beach, Weather by CustomWeather, © 2014

Note: Actual official high and low records may vary slightly from our data, if they occured in-between our weather recording intervals... More about our weather records

Advertising

Cocoa Beach weather history for previous 24 hours

 ConditionsComfort  
Time TempWeatherWind HumidityBarometerVisibility
1:58 AM
Jul 25
79 °FClear.7 mph89%30.05 "Hg10 mi
12:58 AM80 °FClear.8 mph88%30.06 "Hg10 mi
11:58 PM
Jul 24
79 °FClear.6 mph91%30.04 "Hg10 mi
10:58 PM79 °FClear.6 mph90%30.05 "Hg10 mi
9:58 PM79 °FPassing clouds.8 mph89%30.05 "Hg10 mi
8:58 PM80 °FThunderstorms. Passing clouds.16 mph86%30.03 "Hg10 mi
7:58 PM83 °FThunderstorms. Broken clouds.18 mph77%30.04 "Hg10 mi
6:58 PM85 °FThundershowers. Passing clouds.17 mph75%29.99 "Hg10 mi
5:58 PM87 °FSunny.16 mph70%29.99 "Hg10 mi
4:58 PM89 °FSunny.7 mph63%29.99 "Hg10 mi
3:58 PM86 °FSunny.12 mph68%30.00 "Hg10 mi
2:58 PM88 °FSunny.15 mph74%30.03 "Hg10 mi
1:58 PM89 °FSunny.9 mph69%30.05 "Hg10 mi
12:58 PM90 °FSunny.3 mph62%30.06 "Hg10 mi
11:58 AM89 °FSunny.6 mph66%30.07 "Hg10 mi
10:58 AM87 °FSunny.8 mph69%30.07 "Hg10 mi
9:58 AM85 °FSunny.7 mph74%30.07 "Hg10 mi
8:58 AM82 °FSunny.8 mph80%30.07 "Hg10 mi
7:58 AM80 °FSunny.7 mph86%30.06 "Hg10 mi
6:58 AM79 °FClear.8 mph88%30.05 "Hg10 mi
5:58 AM79 °FClear.7 mph89%30.03 "Hg10 mi
4:58 AM79 °FClear.9 mph87%30.02 "Hg10 mi
3:58 AM79 °FClear.7 mph90%30.02 "Hg10 mi
Weather by CustomWeather, © 2014

See weather overviewHow to use our weather pages